Location: Newark
(31.8769°N, 91.1411°W)
Time: 02:05:23
(UTC+00:00)

N. Korean satellite - Pass Details

Date: 30 January 2020
Orbit: 456 x 505 km, 97.2° (Epoch: 25 February)

Event Time Altitude Azimuth Distance (km) Brightness Sun altitude
Rises 23:59:03 0° 202° (SSW) 2,457 10.8 -5.5°
Reaches altitude 10° 00:01:39 10° 224° (SW) 1,589 10.3 -6.1°
Maximum altitude 00:03:51 16° 265° (W) 1,260 10.1 -6.5°
Drops below altitude 10° 00:06:04 10° 305° (NW) 1,599 9.8 -6.9°
Sets 00:08:43 0° 328° (NNW) 2,483 10.4 -7.5°
